sat.trackr.live / text

‹ back to catalog

STARLINK-2763

NORAD 48670 · 2021-044AJ

PAYLOAD ACTIVE UNKNOWN

§ Identity

Operator
Country
US
Launch date
2021-05-26
Launch site
AFETR
Launch vehicle
Mass (kg)
RCS (m²)

Purposes: comms

External: N2YO · Heavens-Above · Gunter

§ Orbital elements

Epoch: 2026-05-25T04:17:35.666592Z

Period
94.01 min
Inclination
53.1572°
Eccentricity
0.0001080
Mean motion
15.31703450 rev/d
Perigee alt
470.0 km
Apogee alt
471.5 km
Semi-major
6,848.9 km
B*
2.5521e-5
RAAN
108.4461°
Arg perigee
92.5087°
Mean anomaly
267.6038°
Rev number
27,567

§ Raw data

STARLINK-27631 48670U 21044AJ  26145.17888503  .00000427  00000+0  25521-4 0  99952 48670  53.1572 108.4461 0001080  92.5087 267.6038 15.31703450275672

JSON: /api/v1/satellites/48670 · /tle

For live sub-satellite position, see the globe view (requires WebGL).

§ Visibility from observer

Set your observer location to see the next 7 days of passes ≥ 10°. The values pass through the URL so the page stays shareable.

No JS? Fill the form by hand. The geolocation button needs JavaScript.